RH
51 56 57 62 57 51 46 39 64 100 100 100 100 100 100 100 86 69 67 55 42 41 55 83 95 100 54 53 92 100 99 98
40 44 49 45 46 50 48 42 49 87 100 100 100 100 92 100 86 65 58 52 53 49 84 88 88 97 62 63 78 99 97 81
37 44 47 40 40 54 73 50 48 85 93 100 100 100 95 90 81 67 60 64 63 52 75 66 85 92 63 51 76 98 99 100
28 34 43 41 42 64 95 64 66 97 100 100 100 100 100 66 71 61 68 70 66 58 74 69 68 66 63 45 67 100 84 95
23 26 32 38 47 65 77 78 98 84 100 100 100 100 100 100 98 74 65 80 100 63 87 70 64 79 66 73 62 77 55 53
15 34 31 36 43 58 86 89 100 93 100 100 98 100 100 100 100 96 90 97 90 100 82 86 71 58 65 100 80 80 57 52
26 36 38 42 51 79 100 100 100 100 100 100 85 96 100 100 100 100 100 95 100 99 76 74 83 62 74 89 95 93 73 60
27 50 59 65 79 100 100 100 100 100 100 100 97 90 80 100 100 100 100 100 100 67 51 78 100 65 78 80 92 98 90 65
21 42 60 84 97 100 100 100 100 100 99 100 79 97 100 100 89 100 100 97 70 57 54 95 100 63 69 76 85 98 100 79
25 29 54 98 100 100 100 100 100 100 100 100 100 74 86 99 97 99 89 83 72 74 78 100 94 61 66 86 88 100 96 60
29 26 34 97 100 100 98 96 100 100 100 100 100 100 91 90 100 81 72 77 77 67 100 97 95 87 89 81 87 82 75 48
31 33 42 82 96 100 100 100 100 100 100 100 100 100 96 89 92 86 70 70 80 85 100 100 100 77 73 72 44 49 67 38
35 25 29 52 96 100 100 100 100 100 100 100 100 85 83 100 100 95 64 88 100 100 82 100 100 69 64 71 50 52 69 38
35 34 33 41 87 100 100 100 100 88 100 100 100 98 87 96 91 81 72 100 100 86 63 100 100 95 78 60 58 53 70 34
58 68 50 40 66 88 100 100 100 100 100 100 100 100 100 99 97 95 76 100 100 100 71 71 95 98 86 68 54 52 77 41
100 63 42 56 79 86 100 100 100 100 100 100 100 100 100 100 100 92 77 96 100 100 74 68 96 93 85 73 64 51 81 40
52 80 71 60 38 56 57 90 100 100 100 100 100 100 100 100 100 82 81 100 100 81 65 63 81 91 98 69 68 56 88 39
28 25 29 32 50 56 69 64 64 87 100 100 100 100 100 100 86 86 100 98 76 64 63 54 74 68 98 65 81 61 88 51
21 24 24 27 44 52 71 83 73 67 96 100 100 100 100 90 93 82 74 70 56 61 67 95 100 100 75 69 70 83 82 76
Wind_Speed
95 91 89 84 79 79 74 68 62 58 58 56 55 52 54 54 53 49 46 43 42 43 40 40 43 46 34 26 32 35 33 31
100 96 93 91 82 80 77 72 66 61 63 63 61 61 58 57 52 49 47 45 45 43 38 36 42 45 32 28 34 35 34 34
94 94 95 93 86 83 79 74 70 66 67 64 64 64 59 57 54 52 46 45 48 44 42 38 41 44 36 32 37 38 35 35
92 89 89 86 85 84 82 77 72 71 68 65 66 66 64 57 56 52 46 45 46 44 43 42 43 41 37 32 36 43 39 35
91 80 82 83 84 85 82 78 75 74 70 66 63 63 64 64 59 54 46 46 49 47 45 45 44 42 36 32 35 41 42 38
78 79 79 76 75 74 76 77 74 76 73 69 64 59 60 62 61 59 51 48 48 48 47 45 45 43 34 31 33 39 43 40
74 75 74 72 70 65 68 69 73 75 75 72 66 60 54 56 57 58 51 46 46 49 47 46 46 42 37 32 38 39 41 41
66 68 69 68 62 63 65 63 67 71 71 73 67 64 65 58 53 53 52 49 48 53 51 48 46 42 37 35 40 41 43 42
62 64 65 65 60 64 68 66 64 66 74 73 72 66 58 55 57 55 54 54 57 54 49 48 45 44 38 39 41 44 44 45
65 61 63 64 67 67 70 65 66 66 68 67 69 69 68 66 64 60 63 59 53 52 48 46 45 46 41 39 42 46 47 44
66 62 59 66 68 68 67 65 68 70 69 69 70 70 68 67 63 59 58 55 52 49 48 47 47 46 37 38 44 46 47 43
65 62 62 66 71 69 68 66 66 66 64 65 66 65 64 63 62 59 55 52 49 46 49 47 44 43 44 39 42 45 45 41
62 60 61 63 70 72 75 75 75 73 71 73 69 66 64 66 65 61 56 53 51 48 48 46 44 46 45 40 41 46 44 40
55 55 56 60 66 75 78 83 82 73 71 71 70 69 69 67 66 62 55 56 54 50 47 48 47 43 45 41 41 45 45 43
57 50 53 50 59 72 82 83 79 78 78 78 76 74 71 67 67 65 59 60 57 57 50 51 46 45 45 42 43 46 46 44
52 53 50 51 58 66 78 79 80 80 78 77 75 73 73 72 70 63 59 60 58 54 49 49 44 42 41 44 44 48 46 43
63 62 57 58 50 57 63 70 78 80 78 79 77 75 73 70 66 63 60 57 56 53 52 44 46 45 45 43 43 49 46 44
65 63 59 53 51 53 55 60 64 70 77 80 79 76 73 71 70 64 63 61 59 57 47 32 36 50 46 43 45 50 49 44
56 56 56 46 51 47 48 53 56 59 65 68 67 66 69 69 66 61 61 60 55 50 43 32 44 56 53 47 48 51 52 47
Wind_Direction
272 269 268 265 267 269 270 263 255 254 257 261 266 263 267 274 277 279 284 282 288 296 303 312 313 312 303 277 239 243 250 246
269 266 262 264 264 262 262 259 249 248 251 256 262 263 266 270 273 277 278 282 285 296 301 306 308 312 299 276 237 242 249 248
261 259 260 261 261 256 253 252 248 248 249 255 257 261 262 265 269 270 275 277 281 289 295 302 309 306 301 275 239 238 240 249
259 256 254 257 256 250 249 249 243 246 246 251 255 258 262 262 263 267 268 276 281 283 289 293 303 308 301 276 240 234 240 242
257 257 254 252 250 249 248 245 243 244 245 245 249 254 260 264 264 263 261 267 277 282 285 290 297 304 297 274 241 236 238 241
258 250 251 249 247 245 244 241 241 244 244 243 245 247 254 259 262 260 261 266 273 281 282 290 291 304 289 269 240 236 237 240
251 249 248 246 245 240 236 239 243 242 243 245 244 242 247 253 260 261 265 263 269 275 280 284 287 301 288 266 246 239 238 240
245 244 243 241 238 235 232 233 237 239 242 243 246 245 246 245 251 254 257 259 263 272 275 281 282 294 287 259 244 242 240 243
244 239 239 237 233 231 230 228 233 238 242 243 245 243 244 245 250 253 257 260 268 268 272 276 279 289 284 262 243 241 240 243
244 238 235 231 228 229 230 229 230 233 239 242 245 245 246 247 250 255 260 263 264 267 270 272 279 285 283 259 244 240 240 243
243 241 234 228 228 229 232 231 231 233 236 240 243 245 246 248 250 254 258 260 263 264 265 271 279 281 268 253 244 237 237 244
241 235 234 227 226 227 231 232 235 237 239 242 242 243 245 247 249 252 258 259 261 260 266 269 272 275 265 254 240 232 237 241
240 235 234 227 223 224 228 230 232 232 234 236 243 243 245 246 249 253 257 257 259 256 265 270 270 274 269 251 238 229 236 241
245 240 232 232 224 224 226 230 233 234 235 239 243 246 249 248 250 252 253 253 255 253 259 266 271 268 266 254 240 229 234 238
242 245 247 229 227 227 228 229 232 235 237 240 243 246 248 247 250 253 253 252 255 254 257 264 263 266 259 253 237 229 233 241
239 240 239 234 227 225 228 230 231 234 235 238 240 239 241 245 249 249 251 250 249 250 256 255 259 258 259 250 238 228 231 241
227 234 231 238 224 232 231 231 231 232 234 236 238 241 242 243 245 248 249 244 246 253 254 245 250 259 259 255 239 228 228 238
234 237 237 236 240 236 233 232 231 233 235 236 237 239 242 245 248 247 242 244 248 249 241 239 270 264 260 257 240 231 228 234
241 240 245 235 235 238 236 232 233 232 232 232 232 237 239 241 243 241 239 243 242 235 231 203 240 251 252 252 240 232 231 233